Location: Seattle
(47.6064°N, 122.3308°W)
Time: 06:02:49
(UTC-07:00)

Tiros 1 - Pass Details

Date: 03 August 2021
Orbit: 630 x 663 km, 48.4° (Epoch: 25 September)

Event Time Altitude Azimuth Distance (km) Brightness Sun altitude
Rises 21:43:47 0° 279° (W) 2,980 11.7 -9.8°
Reaches altitude 10° 21:46:09 10° 280° (W) 2,063 10.8 -10.1°
Maximum altitude 21:50:55 88° 7° (N) 655 7.2 -10.7°
Enters shadow 21:55:23 11° 100° (E) 1,945 9.1 -11.3°
